Sion, Switzerland

1:45 AM CEST on August 31, 2016 (GMT +0200)
Sion

Weather History for LSGS - October, 2013

Change the Weather History Date:

Sunday, October 6, 2013

  Actual Average Record
Temperature  
Mean Temperature 61 °F -  
Max Temperature 68 °F 24 °F - ()
Min Temperature 54 °F 17 °F - ()
Degree Days  
Heating Degree Days 4    
Growing Degree Days 11 (Base 50)    
Moisture  
Dew Point 52 °F    
Average Humidity 70    
Maximum Humidity 92    
Minimum Humidity 43    
Precipitation  
Precipitation 0.00 in - - ()
Sea Level Pressure  
Sea Level Pressure 30.16 in    
Wind  
Wind Speed 4 mph ()    
Max Wind Speed 13 mph    
Max Gust Speed -    
Visibility 6.8 miles    
Events      
T = Trace of Precipitation, MM = Missing Value Source: Averaged Metar Reports

Daily Weather History Graph

Daily Weather History Graph

Search for Another Location

Airport or City:

Trip Planner

Search our weather history database for the weather conditions in past years. The results will help you decide how hot, cold, wet, or windy it might be!

Date:

Astronomy

Oct. 06, 2013 Rise Set
Actual Time 7:35 AM CEST 7:01 PM CEST
Civil Twilight 7:05 AM CEST 7:30 PM CEST
Nautical Twilight 6:30 AM CEST 8:05 PM CEST
Astronomical Twilight 5:55 AM CEST 8:40 PM CEST
Moon 9:09 AM CEST (10/6) 7:41 PM CEST (10/6)
Length of Visible Light 12h 25m
Length of Day
11h 25m
New Moon, 2% of the Moon is Illuminated
Oct 6
New Moon
Oct 12
First Quarter
Oct 19
Full
Oct 27
Last Quarter
Nov 3
New

Hourly Weather History & Observations

Time (CEST) Temp. Dew Point Humidity Pressure Visibility Wind Dir Wind Speed Gust Speed Precip Events Conditions
12:00 AM 58 °F 51 °F 71% 30.18 in - SSW 3.5 mph - -  
1:00 AM 57 °F 52 °F 77% 30.18 in - West 3.5 mph - -  
2:00 AM 56 °F 53 °F 84% 30.19 in - ESE 1.2 mph - -  
3:00 AM 55 °F 53 °F 92% 30.19 in - South 1.2 mph - -  
6:00 AM 56 °F 52 °F 82% 30.19 in - West 1.2 mph - -  
7:00 AM 56 °F 53 °F 86% 30.19 in - WSW 1.2 mph - -  
7:20 AM 55.4 °F 51.8 °F 88% 30.18 in 6.2 mi Variable 1.2 mph - N/A   Overcast
7:50 AM 55.4 °F 51.8 °F 88% 30.21 in 6.2 mi Variable 1.2 mph - N/A   Overcast
8:00 AM 56 °F 53 °F 85% 30.20 in 9 mi West 1.2 mph - -   Overcast
8:20 AM 55.4 °F 51.8 °F 88% 30.21 in 6.2 mi SSW 2.3 mph - N/A   Mostly Cloudy
8:50 AM 55.4 °F 51.8 °F 88% 30.21 in 6.2 mi WSW 2.3 mph - N/A   Mostly Cloudy
9:00 AM 56 °F 53 °F 87% 30.21 in - WSW 2.3 mph - -  
9:20 AM 55.4 °F 51.8 °F 88% 30.21 in 6.2 mi WSW 3.5 mph - N/A   Mostly Cloudy
9:50 AM 57.2 °F 51.8 °F 82% 30.21 in 6.2 mi Variable 2.3 mph - N/A   Mostly Cloudy
10:00 AM 57 °F 53 °F 81% 30.20 in - WSW 2.3 mph - -  
10:20 AM 57.2 °F 51.8 °F 82% 30.21 in 6.2 mi Variable 2.3 mph - N/A   Mostly Cloudy
10:50 AM 59.0 °F 51.8 °F 77% 30.21 in 6.2 mi Variable 3.5 mph - N/A   Mostly Cloudy
11:20 AM 60.8 °F 51.8 °F 72% 30.18 in 6.2 mi Variable 3.5 mph - N/A   Scattered Clouds
11:50 AM 60.8 °F 51.8 °F 72% 30.18 in 6.2 mi SW 4.6 mph - N/A   Scattered Clouds
12:00 PM 63 °F 51 °F 55% 30.17 in - WSW 3.5 mph - -  
12:20 PM 62.6 °F 51.8 °F 68% 30.18 in 6.2 mi WSW 4.6 mph - N/A   Scattered Clouds
12:50 PM 64.4 °F 50.0 °F 59% 30.18 in 6.2 mi SW 5.8 mph - N/A   Scattered Clouds
1:00 PM 65 °F 50 °F 49% 30.14 in - WSW 6.9 mph - -  
1:20 PM 64.4 °F 51.8 °F 64% 30.18 in 6.2 mi WSW 8.1 mph - N/A   Scattered Clouds
1:50 PM 66.2 °F 50.0 °F 56% 30.15 in 6.2 mi WSW 8.1 mph - N/A   Scattered Clouds
2:00 PM 65 °F 49 °F 46% 30.12 in 12 mi WSW 9.2 mph - -   Scattered Clouds
2:20 PM 64.4 °F 50.0 °F 59% 30.15 in 6.2 mi WSW 9.2 mph - N/A   Scattered Clouds
2:50 PM 64.4 °F 50.0 °F 59% 30.15 in 6.2 mi WSW 9.2 mph - N/A   Scattered Clouds
3:00 PM 67 °F 49 °F 43% 30.10 in - WSW 12.7 mph - -  
3:20 PM 66.2 °F 50.0 °F 56% 30.12 in 6.2 mi WSW 10.4 mph - N/A   Mostly Cloudy
3:50 PM 68.0 °F 50.0 °F 52% 30.12 in 6.2 mi West 12.7 mph - N/A   Scattered Clouds
4:00 PM 67 °F 50 °F 43% 30.09 in - West 11.5 mph - -  
4:20 PM 68.0 °F 51.8 °F 56% 30.12 in 6.2 mi WSW 11.5 mph - N/A   Scattered Clouds
4:50 PM 66.2 °F 51.8 °F 60% 30.12 in 6.2 mi WSW 11.5 mph - N/A   Mostly Cloudy
5:20 PM 64.4 °F 51.8 °F 64% 30.12 in 6.2 mi West 11.5 mph - N/A   Mostly Cloudy
5:50 PM 62.6 °F 51.8 °F 68% 30.12 in 6.2 mi West 9.2 mph - N/A   Mostly Cloudy
6:00 PM 64 °F 53 °F 58% 30.11 in - West 9.2 mph - -  
6:20 PM 62.6 °F 51.8 °F 68% 30.12 in 6.2 mi West 10.4 mph - N/A   Mostly Cloudy
6:50 PM 62.6 °F 51.8 °F 68% 30.15 in 6.2 mi West 8.1 mph - N/A   Mostly Cloudy
7:00 PM 62 °F 53 °F 63% 30.12 in - WSW 9.2 mph - -  
7:20 PM 60.8 °F 51.8 °F 72% 30.15 in 6.2 mi WSW 8.1 mph - N/A   Mostly Cloudy
8:00 PM 61 °F 53 °F 67% 30.15 in 14 mi WSW 3.5 mph - -   Partly Cloudy
10:00 PM 56 °F 54 °F 90% 30.19 in - South 1.2 mph - -